Probability
94 97 94 94 90 84 90 90 87 81 71 77 58 48 39 45 39 35 39 74 87 81 74 52 55 45 48 48 52 52 48 42 58 52 42 39 35 32 26 16 23 23 16
97 97 97 97 97 87 90 94 84 87 81 77 77 65 55 45 58 48 32 58 77 81 74 71 58 55 48 48 45 45 55 52 55 55 42 42 45 48 35 19 23 26 19
97 97 97 97 90 90 87 94 87 84 77 77 68 58 61 65 52 71 52 58 55 77 81 77 71 61 58 48 55 52 52 58 52 52 52 52 55 45 32 32 23 19 19
97 97 97 97 97 97 97 94 84 84 77 81 81 68 71 74 65 61 68 68 58 29 65 81 77 71 58 48 42 48 55 61 61 58 55 55 42 39 39 29 26 23 23
94 97 94 94 94 94 94 74 77 84 81 81 81 84 74 77 61 52 65 68 74 61 48 61 81 77 58 48 45 42 42 55 55 61 48 45 45 45 48 39 29 23 19
90 97 97 100 97 97 94 90 84 87 84 77 32 32 55 61 71 65 61 58 65 58 58 39 55 45 71 68 68 55 45 48 58 55 48 45 35 35 32 39 35 26 23
94 97 94 97 94 100 87 84 74 77 77 84 68 48 61 52 65 74 61 61 52 61 58 61 61 58 42 68 65 77 58 42 55 55 58 55 48 39 35 32 26 26 23
97 84 97 94 97 97 84 87 81 87 71 81 71 48 35 45 58 23 61 68 45 58 55 42 61 61 42 32 29 77 74 58 52 45 58 58 45 42 35 32 23 19 23
90 94 94 87 94 90 87 84 90 84 84 84 77 68 32 16 35 45 45 42 65 68 52 55 58 65 48 48 32 23 71 65 65 45 55 68 52 42 42 39 29 26 23
87 87 87 87 94 84 94 84 87 90 84 71 77 77 71 55 39 32 52 42 55 58 55 19 35 58 58 55 48 26 26 26 52 52 52 55 52 45 39 35 29 32 26
87 81 81 71 81 87 90 81 84 84 81 74 71 74 45 61 48 32 19 29 35 55 52 52 55 48 48 55 52 32 16 10 6 42 48 55 45 48 39 26 23 26 29
87 77 74 77 77 84 84 87 90 81 81 74 77 68 55 45 35 32 29 23 19 42 48 45 42 48 39 39 39 13 6 3 3 6 23 35 48 45 35 29 19 16 23
71 74 71 77 77 81 81 81 77 84 84 84 77 65 58 52 48 39 26 26 16 39 52 45 35 32 19 26 29 10 6 0 0 0 0 3 16 23 26 29 29 26 26
65 74 74 71 71 81 77 81 74 77 81 81 55 68 68 65 52 45 45 23 13 19 26 19 32 26 23 32 35 3 3 0 0 0 0 0 0 0 0 0 6 13 13
65 71 74 68 71 74 74 77 68 65 77 68 65 74 71 61 65 48 52 35 19 6 10 29 32 39 32 39 0 6 32 0 0 0 0 0 0 0 0 0 0 0 0
74 65 68 68 71 71 68 65 68 65 65 68 68 71 71 48 45 35 35 32 35 19 10 23 35 16 35 3 3 23 29 3 0 0 0 0 0 0 0 0 0 0 0
81 65 65 58 65 65 65 61 55 61 61 65 61 55 58 52 55 45 39 29 32 32 19 29 32 45 32 29 10 23 26 16 3 0 0 0 0 0 0 0 0 0 0
74 74 71 68 58 52 58 58 52 45 55 48 55 42 48 32 55 39 35 32 29 26 23 19 32 39 52 45 42 45 16 6 10 0 0 0 0 0 0 0 0 0 0
77 77 71 65 58 58 58 58 52 58 55 39 45 42 29 19 32 32 42 29 35 13 26 16 10 39 39 32 39 35 10 26 10 0 0 0 0 0 0 0 0 0 0
65 71 68 65 65 58 52 55 58 52 52 45 32 23 23 26 35 48 32 39 29 32 29 19 6 13 23 35 32 26 19 35 19 0 0 0 0 0 0 0 0 0 0
65 65 68 68 65 55 52 48 45 39 39 32 35 35 19 19 23 23 10 23 23 29 26 13 6 10 26 23 19 13 6 16 16 6 3 0 0 0 0 0 0 0 0
65 61 61 61 55 35 13 3 23 29 42 35 32 29 29 19 10 0 3 3 3 6 13 16 13 13 23 26 16 13 10 13 10 23 13 10 0 0 0 0 0 0 0
61 65 61 55 48 39 6 0 0 29 42 42 35 35 13 10 6 13 3 0 0 0 0 3 6 16 23 23 23 13 13 16 16 23 10 6 10 3 3 0 0 0 0
52 55 55 58 58 26 3 0 0 3 23 39 39 32 32 26 13 13 16 10 10 0 0 3 3 3 0 16 23 13 10 6 26 26 3 0 3 10 3 0 0 0 0
55 55 48 52 52 35 3 0 0 6 19 29 32 26 23 19 13 3 6 19 19 16 0 0 0 0 0 0 0 0 6 3 0 0 6 0 0 0 3 0 0 0 0
45 45 35 39 42 42 13 0 0 3 16 23 26 19 6 10 10 0 3 16 16 16 13 6 0 0 0 0 0 0 0 3 0 0 3 0 0 0 0 0 0 0 0
Height
5898 5898 5899 5900 5900 5901 5901 5902 5902 5903 5903 5904 5904 5905 5905 5905 5905 5906 5906 5906 5906 5906 5906 5906 5906 5906 5906 5906 5906 5906 5906 5907 5907 5907 5907 5907 5907 5907 5907 5908 5908 5908 5908
5897 5898 5899 5899 5900 5900 5901 5902 5902 5903 5904 5904 5904 5905 5905 5906 5906 5905 5906 5906 5906 5907 5906 5906 5907 5906 5906 5906 5906 5906 5906 5906 5907 5907 5907 5907 5907 5907 5907 5907 5907 5907 5908
5897 5898 5898 5899 5899 5900 5901 5902 5902 5903 5904 5904 5904 5905 5905 5906 5906 5906 5906 5906 5907 5907 5907 5907 5907 5907 5907 5907 5906 5906 5906 5906 5906 5906 5906 5906 5906 5906 5906 5906 5906 5907 5907
5896 5897 5897 5898 5898 5899 5900 5901 5902 5903 5903 5903 5904 5904 5905 5905 5906 5906 5907 5907 5907 5907 5907 5907 5907 5907 5907 5906 5906 5906 5906 5906 5906 5906 5906 5905 5906 5906 5906 5906 5906 5906 5906
5895 5896 5896 5897 5898 5898 5899 5900 5901 5902 5902 5903 5903 5904 5905 5905 5905 5906 5906 5907 5907 5907 5907 5907 5907 5907 5907 5906 5906 5906 5906 5906 5906 5905 5905 5905 5905 5905 5905 5905 5905 5905 5905
5893 5894 5895 5896 5896 5897 5898 5899 5900 5901 5901 5902 5903 5903 5904 5904 5905 5905 5906 5906 5906 5906 5906 5906 5906 5906 5906 5906 5906 5905 5905 5905 5905 5905 5905 5904 5904 5904 5904 5904 5904 5904 5904
5891 5892 5893 5894 5895 5896 5897 5898 5899 5900 5900 5901 5902 5902 5903 5903 5904 5905 5905 5905 5906 5906 5906 5906 5906 5906 5906 5906 5905 5905 5905 5905 5905 5905 5904 5904 5904 5904 5904 5904 5903 5903 5903
5889 5890 5891 5892 5893 5894 5895 5896 5897 5898 5899 5900 5901 5901 5902 5903 5903 5904 5904 5905 5905 5905 5905 5905 5905 5905 5905 5905 5905 5904 5904 5904 5904 5904 5904 5904 5904 5903 5903 5903 5902 5902 5902
5886 5887 5888 5890 5891 5892 5893 5894 5895 5897 5897 5898 5899 5900 5901 5902 5902 5903 5903 5904 5904 5904 5904 5904 5904 5904 5904 5904 5904 5904 5903 5903 5903 5903 5903 5903 5903 5902 5902 5902 5901 5901 5901
5883 5884 5885 5887 5888 5889 5891 5892 5893 5894 5895 5897 5897 5898 5900 5900 5901 5902 5902 5902 5902 5903 5903 5903 5903 5903 5903 5903 5903 5903 5902 5902 5902 5902 5902 5902 5902 5901 5901 5900 5900 5899 5899
5879 5881 5882 5884 5885 5886 5888 5889 5891 5892 5893 5894 5895 5896 5897 5898 5899 5900 5900 5901 5901 5901 5901 5902 5902 5902 5902 5902 5902 5901 5901 5901 5901 5901 5900 5900 5900 5900 5899 5898 5898 5897 5897
5876 5877 5878 5880 5882 5883 5884 5886 5887 5889 5890 5891 5892 5893 5894 5896 5897 5897 5898 5898 5899 5899 5900 5900 5900 5900 5900 5900 5900 5900 5899 5899 5899 5899 5899 5898 5898 5898 5897 5896 5896 5895 5895
5873 5874 5875 5876 5878 5879 5880 5882 5884 5885 5887 5888 5889 5890 5891 5892 5893 5894 5895 5896 5896 5897 5897 5898 5898 5898 5898 5898 5898 5898 5897 5897 5897 5897 5896 5896 5895 5895 5894 5894 5893 5893 5892
5869 5870 5872 5873 5874 5875 5877 5879 5880 5882 5883 5884 5886 5887 5888 5889 5890 5891 5891 5892 5893 5894 5894 5895 5895 5895 5895 5895 5895 5895 5895 5894 5894 5894 5893 5893 5892 5892 5891 5891 5890 5890 5889
5865 5866 5868 5869 5870 5872 5873 5875 5877 5878 5879 5880 5882 5883 5884 5885 5886 5886 5887 5888 5889 5890 5891 5892 5892 5892 5892 5892 5892 5892 5891 5891 5891 5890 5890 5889 5889 5888 5888 5887 5887 5886 5885
5862 5863 5864 5865 5867 5868 5869 5871 5872 5873 5874 5876 5877 5879 5880 5881 5882 5882 5883 5884 5884 5886 5887 5887 5888 5888 5888 5888 5888 5888 5888 5887 5887 5886 5886 5886 5885 5885 5884 5883 5882 5882 5881
5858 5859 5860 5861 5862 5864 5865 5866 5867 5868 5869 5871 5872 5873 5875 5876 5877 5877 5878 5879 5880 5881 5882 5883 5883 5883 5883 5883 5884 5883 5883 5883 5882 5882 5881 5881 5881 5880 5879 5878 5878 5877 5876
5855 5855 5856 5857 5858 5859 5860 5861 5863 5864 5865 5866 5867 5868 5869 5870 5871 5872 5873 5874 5875 5876 5877 5877 5877 5878 5878 5878 5878 5878 5878 5878 5877 5877 5876 5876 5875 5875 5874 5873 5872 5871 5870
5851 5851 5852 5853 5854 5855 5856 5857 5858 5859 5860 5861 5861 5862 5864 5865 5866 5867 5868 5869 5869 5870 5871 5872 5872 5872 5872 5872 5872 5872 5872 5872 5871 5871 5870 5870 5870 5869 5868 5867 5866 5865 5863
5847 5848 5848 5849 5849 5850 5851 5852 5854 5855 5855 5856 5856 5857 5859 5860 5861 5861 5862 5863 5864 5864 5865 5866 5866 5866 5866 5866 5866 5866 5866 5865 5865 5864 5864 5863 5863 5862 5861 5860 5859 5858 5856
5843 5844 5844 5845 5845 5846 5847 5848 5849 5850 5851 5851 5852 5852 5853 5854 5855 5856 5857 5857 5858 5858 5859 5859 5859 5859 5859 5859 5859 5859 5859 5858 5858 5857 5857 5856 5855 5854 5853 5852 5851 5849 5848
5839 5840 5840 5841 5841 5842 5843 5843 5844 5845 5846 5846 5847 5847 5848 5848 5849 5850 5851 5851 5851 5852 5852 5852 5852 5852 5852 5852 5852 5851 5851 5851 5850 5850 5848 5848 5847 5846 5845 5843 5842 5840 5839
5836 5836 5837 5837 5837 5838 5838 5839 5839 5840 5841 5841 5842 5842 5842 5843 5843 5843 5844 5844 5845 5845 5845 5845 5845 5844 5844 5844 5843 5843 5842 5842 5841 5840 5839 5839 5837 5836 5835 5834 5833 5831 5828
5831 5832 5832 5832 5833 5833 5833 5834 5834 5834 5835 5836 5836 5836 5836 5836 5836 5837 5837 5838 5838 5838 5838 5838 5838 5837 5836 5835 5834 5834 5834 5833 5832 5831 5829 5829 5827 5826 5824 5823 5821 5819 5817
5827 5827 5827 5827 5827 5828 5828 5828 5829 5829 5829 5830 5830 5830 5830 5830 5830 5830 5830 5831 5831 5831 5830 5830 5829 5829 5828 5827 5826 5825 5824 5823 5822 5821 5819 5818 5817 5815 5813 5811 5809 5807 5805
5822 5822 5822 5822 5822 5822 5822 5822 5823 5823 5824 5824 5824 5824 5824 5824 5823 5823 5823 5823 5823 5823 5822 5822 5821 5820 5819 5818 5816 5815 5814 5812 5811 5811 5809 5807 5805 5803 5802 5799 5796 5794 5792
Wind_Speed
6 5 5 5 5 5 4 4 3 3 3 3 3 2 1 1 1 1 1 2 2 2 2 2 2 2 2 3 3 2 2 2 2 3 2 2 2 2 2 2 1 1 1
7 7 6 6 6 6 5 5 4 4 3 3 3 3 2 2 2 1 1 1 1 2 2 3 3 2 2 3 2 2 2 2 3 2 2 2 2 3 2 2 2 1 2
8 8 8 7 6 6 6 6 6 5 5 4 4 4 3 3 3 2 1 1 1 1 2 2 3 3 3 3 3 3 2 2 3 2 2 2 2 2 2 2 2 2 2
9 9 9 8 7 7 7 7 7 6 5 5 4 4 4 3 3 2 2 1 1 1 2 2 3 3 3 3 3 3 2 2 2 2 2 3 2 2 2 2 2 2 2
10 10 10 10 9 8 7 8 8 7 7 6 5 5 4 4 3 3 2 2 2 2 2 3 3 3 3 4 4 3 3 2 2 2 2 2 2 2 2 2 2 2 2
11 11 11 11 11 9 9 8 8 8 8 7 6 5 5 4 4 3 3 3 3 3 3 3 3 3 3 4 4 4 3 2 2 2 1 1 1 1 2 2 3 3 3
12 12 12 11 11 10 10 9 9 9 9 8 7 6 6 5 4 4 4 4 4 4 3 3 3 3 4 5 4 4 3 2 2 2 1 2 2 2 2 3 3 4 4
13 13 13 12 12 11 11 10 10 10 9 9 9 8 7 6 5 4 4 5 5 4 4 3 4 4 4 4 4 3 3 3 2 2 2 2 3 3 3 3 4 4 4
15 14 14 14 14 13 13 12 11 12 11 10 10 10 9 8 7 5 5 5 5 4 4 4 3 3 4 4 4 4 4 3 3 3 3 3 4 4 4 4 4 5 5
15 15 15 15 15 14 13 13 13 13 13 12 12 12 11 10 9 8 7 7 6 6 5 5 4 4 4 4 4 4 4 5 4 4 4 5 5 5 6 6 6 6 7
16 16 16 16 16 15 15 15 15 15 14 14 13 13 12 11 10 10 9 9 8 8 7 6 6 6 5 6 6 6 6 6 6 6 6 6 7 7 7 7 8 8 8
16 16 16 17 17 16 16 16 16 16 15 15 15 14 13 13 12 12 11 11 11 10 9 8 8 8 8 7 7 7 7 8 8 8 8 8 8 9 9 9 9 9 9
16 16 17 17 17 17 17 17 17 16 16 16 16 15 15 14 14 13 13 13 13 12 11 11 11 10 10 10 9 8 8 9 10 10 10 10 10 11 11 11 10 10 11
17 16 16 16 17 17 17 17 17 17 17 17 17 17 16 16 15 15 15 15 14 14 13 14 13 13 12 12 11 11 11 11 12 12 12 12 12 12 12 12 12 13 13
16 17 16 17 17 18 17 17 18 18 18 18 18 18 18 17 17 16 16 16 16 15 15 15 15 15 14 14 14 13 13 13 13 13 14 14 14 14 14 14 14 15 16
15 16 18 18 19 19 19 20 20 20 20 20 20 20 20 20 19 18 18 18 17 17 17 17 17 17 16 15 15 15 16 15 16 15 15 15 15 15 16 16 17 17 18
16 16 17 18 19 20 19 20 21 21 20 20 21 21 21 21 21 20 20 20 20 18 18 19 18 18 18 18 17 18 18 18 18 18 18 17 17 18 19 19 19 20 20
16 16 16 17 18 19 19 19 19 19 19 20 21 22 22 23 22 21 21 20 20 20 20 20 21 20 20 21 20 20 20 20 20 20 20 20 20 21 21 21 22 22 22
15 15 15 17 18 19 20 20 20 20 19 19 21 21 21 22 22 22 22 21 21 21 22 23 23 23 22 23 22 22 22 22 22 22 22 23 24 24 24 24 24 25 26
15 15 16 16 17 18 19 19 20 20 19 19 19 20 20 20 21 22 22 22 23 23 23 24 24 25 24 24 24 24 24 24 24 24 25 25 26 26 26 26 27 29 29
15 16 15 15 16 16 17 19 20 20 20 20 21 20 20 21 22 22 23 23 24 24 24 24 24 25 26 26 25 26 26 26 26 27 28 28 28 28 28 29 30 32 33
15 16 16 16 16 17 17 19 20 20 21 22 22 22 22 23 23 23 24 24 25 25 25 26 26 26 26 28 28 28 29 29 29 30 30 30 30 30 31 32 33 34 35
17 17 17 17 17 17 18 19 20 20 21 22 22 23 23 23 24 24 24 25 25 26 26 26 26 26 28 30 30 31 31 31 31 32 33 33 34 34 34 35 36 37 38
18 18 18 19 19 19 19 20 20 20 21 22 22 23 24 24 24 25 26 26 26 26 27 28 29 29 30 31 31 32 33 33 34 35 36 35 35 36 37 37 38 39 40
19 19 19 19 19 20 20 21 21 22 22 22 23 23 24 25 25 26 26 27 27 28 29 30 30 32 33 34 33 33 34 36 36 37 38 38 38 39 40 40 41 42 42
20 20 20 20 20 20 21 22 22 22 23 23 23 23 24 25 26 27 29 29 30 31 31 32 33 34 34 35 35 35 36 37 38 39 40 41 41 42 43 44 45 45 45
Wind_Direction
242 242 243 245 237 232 234 232 233 236 233 237 238 230 247 268 279 295 25 21 14 15 17 18 13 1 354 350 347 353 350 338 337 324 309 310 306 300 297 307 314 322 326
245 245 249 253 246 240 241 240 244 255 253 245 245 243 253 271 271 302 340 1 6 3 15 21 12 1 352 347 345 337 331 320 318 324 325 314 304 304 291 281 273 292 307
250 252 257 257 254 248 247 249 250 255 262 263 263 260 261 264 275 278 291 317 350 360 9 9 9 6 357 346 338 323 306 309 318 314 312 309 317 307 290 297 279 275 283
254 256 260 258 258 254 250 251 253 254 261 263 260 259 258 260 264 255 245 273 319 341 354 353 351 349 348 343 338 334 330 320 327 317 310 308 307 318 314 322 307 285 289
257 256 259 261 262 259 251 248 252 256 259 260 256 256 258 261 265 261 245 262 281 301 316 321 332 339 343 347 348 343 341 337 336 325 315 306 288 289 292 298 324 323 314
264 261 260 263 264 258 249 246 252 255 255 260 259 253 250 256 271 268 260 265 277 295 309 317 325 326 332 339 342 343 336 333 339 342 334 346 326 296 295 303 309 312 312
262 263 262 262 262 254 250 249 251 255 253 256 256 251 252 252 263 266 268 271 278 288 299 312 324 324 321 321 324 332 337 333 328 335 356 12 4 343 326 313 309 313 313
262 261 259 258 257 251 248 250 251 253 253 252 251 251 251 252 256 263 264 270 278 281 280 294 311 316 316 317 316 319 322 328 335 334 339 349 347 342 334 326 317 313 315
263 261 256 254 256 254 250 250 253 252 251 250 250 250 252 250 254 258 264 268 270 275 277 285 300 312 324 322 322 315 313 312 316 318 310 317 322 325 329 327 324 315 309
265 264 261 256 255 256 252 251 253 254 254 253 251 251 252 253 254 256 263 262 265 272 272 273 285 299 310 308 308 304 300 298 300 303 304 301 307 312 315 318 318 316 310
268 267 263 259 257 254 251 252 254 257 256 255 254 252 251 253 255 257 261 262 265 267 270 271 279 289 295 297 296 294 293 293 292 295 295 294 298 303 305 307 308 310 309
266 265 262 258 256 250 248 252 254 256 256 256 255 252 252 255 256 257 259 262 263 266 268 269 275 281 286 289 290 291 287 287 289 291 293 292 294 297 299 299 299 301 303
265 263 263 258 252 249 249 249 252 253 254 255 254 253 253 256 257 257 258 259 262 265 266 269 271 273 277 279 281 286 286 286 289 290 289 288 288 291 293 294 294 293 296
263 261 260 258 252 249 248 248 249 251 252 253 253 253 254 254 256 256 257 259 259 259 261 266 267 271 275 276 276 278 282 284 286 287 286 285 285 287 288 290 291 290 292
264 263 258 256 254 249 247 247 248 249 250 252 253 253 253 253 254 256 258 262 260 259 262 265 267 270 272 274 272 273 276 281 285 285 284 283 283 284 286 287 289 291 291
264 265 260 257 254 250 249 249 249 248 249 250 252 253 255 256 257 257 259 260 260 261 262 265 268 270 271 273 271 273 276 279 282 284 283 282 282 283 285 286 287 289 290
266 266 264 262 255 250 250 252 252 252 252 252 252 253 255 257 257 256 258 260 260 260 263 265 266 268 271 272 272 273 275 278 280 280 279 279 281 282 284 284 285 286 288
266 264 263 261 254 250 249 251 253 253 254 253 253 253 255 257 257 257 259 259 260 262 264 265 267 268 268 269 270 272 275 276 276 277 276 277 279 281 283 284 285 286 287
263 262 263 263 257 252 251 250 252 253 256 256 255 254 256 258 259 259 260 260 262 264 266 267 268 268 267 268 269 271 272 274 276 276 278 278 278 279 281 284 285 286 288
263 262 264 262 257 254 251 251 252 255 258 259 259 258 259 261 261 263 263 263 263 266 268 269 270 269 268 268 269 270 271 274 277 278 279 279 279 280 281 283 285 287 288
264 263 262 261 261 259 257 255 256 257 257 259 262 263 264 264 264 265 265 264 264 265 268 269 270 270 271 270 270 271 272 275 277 277 279 279 279 279 279 281 282 284 286
266 265 264 265 266 264 261 259 259 260 261 262 264 264 266 266 263 265 266 265 266 268 269 270 270 272 273 273 272 272 273 275 276 277 279 280 279 279 280 281 283 284 286
267 268 266 265 265 264 263 262 261 262 263 264 265 267 268 267 263 263 265 266 267 269 270 271 273 275 274 274 275 274 275 276 277 277 278 280 280 280 280 282 283 284 285
269 268 267 265 265 265 264 264 263 263 264 265 267 269 268 268 266 266 267 269 270 271 273 274 275 276 277 278 277 276 276 278 279 280 282 281 280 281 282 283 284 285 286
271 270 270 267 266 266 265 264 264 264 264 266 268 269 269 270 268 267 268 270 272 273 274 276 277 278 279 279 279 280 279 279 280 281 282 282 281 282 283 283 284 285 286
272 272 271 269 269 267 266 265 265 265 267 268 268 269 271 271 270 268 269 271 273 274 274 276 278 279 280 281 280 282 282 280 281 281 282 282 283 284 285 285 285 285 286